FW2270 Weather Reports


Display with metric or nautical units.
time (UTC)temp
F
wind
direction
speed
MPH
gust
MPH
rain 1hr
in
rain 24hr
in
rain mn
in
humidity
%
barometer
mb
20260508231441 63 308 4.0 11.0 0.00 0.00 0.00 83 1018.0
20260508230433 63 300 2.0 9.0 0.00 0.00 0.00 85 1018.1
20260508225424 62 275 4.0 11.0 0.00 0.00 0.00 86 1018.3
20260508224423 62 258 6.0 12.0 0.00 0.00 0.00 83 1018.4
20260508223438 63 311 5.0 11.0 0.00 0.00 0.00 83 1018.5
20260508222451 62 278 6.0 12.0 0.00 0.00 0.00 84 1018.5
20260508221425 63 276 4.0 10.0 0.00 0.00 0.00 83 1018.7
20260508220423 63 312 5.0 12.0 0.00 0.00 0.00 83 1018.8
20260508215416 63 316 4.0 10.0 0.00 0.00 0.00 82 1018.9
20260508214430 63 244 3.0 10.0 0.00 0.00 0.00 85 1019.0
20260508213445 63 272 3.0 13.0 0.00 0.00 0.00 83 1019.0
20260508212423 63 255 5.0 12.0 0.00 0.00 0.00 83 1019.2
20260508211416 64 268 4.0 13.0 0.00 0.00 0.00 84 1019.2
20260508210431 64 312 3.0 11.0 0.00 0.00 0.00 84 1019.3
20260508205427 64 313 3.0 10.0 0.00 0.00 0.00 83 1019.3
20260508204421 64 294 3.0 9.0 0.00 0.00 0.00 85 1019.3
20260508203416 64 307 3.0 10.0 0.00 0.00 0.00 85 1019.3
20260508202429 63 317 2.0 9.0 0.00 0.00 0.00 84 1019.5
20260508201426 63 284 4.0 11.0 0.00 0.00 0.00 82 1019.7
20260508200420 64 275 3.0 8.0 0.00 0.00 0.00 85 1019.8
20260508195433 63 291 2.0 7.0 0.00 0.00 0.00 86 1019.9
20260508194425 62 294 4.0 8.0 0.00 0.00 0.00 86 1019.9
20260508121433 49 317 0.0 0.0 0.00 0.00 0.00 97 1019.2
20260508120451 50 317 1.0 3.0 0.00 0.00 0.00 97 1019.1
20260508115423 50 317 2.0 4.0 0.00 0.00 0.00 97 1019.1
20260508114437 49 315 0.0 3.0 0.00 0.00 0.00 97 1019.2
20260508113431 50 314 0.0 2.0 0.00 0.00 0.00 97 1019.1
20260508112428 50 315 1.0 4.0 0.00 0.00 0.00 97 1019.2
20260508111423 50 310 1.0 2.0 0.00 0.00 0.00 96 1019.3
20260508110418 50 308 0.0 5.0 0.00 0.00 0.00 96 1019.3
20260508105450 50 312 0.0 4.0 0.00 0.00 0.00 96 1019.3
20260508104428 50 295 1.0 2.0 0.00 0.00 0.00 96 1019.3
20260508103423 50 295 0.0 2.0 0.00 0.00 0.00 96 1019.3
20260508102417 51 285 1.0 4.0 0.00 0.00 0.00 96 1019.2
20260508101414 51 289 1.0 3.0 0.00 0.00 0.00 96 1019.2
20260508100429 51 321 1.0 5.0 0.00 0.00 0.00 96 1019.2
20260508095422 51 307 0.0 6.0 0.00 0.00 0.00 96 1019.2
20260508094416 51 297 1.0 3.0 0.00 0.00 0.00 96 1019.2
20260508093415 51 291 0.0 2.0 0.00 0.00 0.00 96 1019.2
20260508092429 51 291 0.0 5.0 0.00 0.00 0.00 96 1019.2
20260508091423 51 319 1.0 4.0 0.00 0.00 0.00 96 1019.2
20260508090438 51 294 0.0 2.0 0.00 0.00 0.00 96 1019.1
20260508085414 51 313 0.0 4.0 0.00 0.00 0.00 96 1019.1
20260508084429 51 311 0.0 2.0 0.00 0.00 0.00 96 1019.1
20260508083424 51 311 2.0 5.0 0.00 0.00 0.00 96 1019.0
20260508082422 51 318 3.0 6.0 0.00 0.00 0.00 96 1019.2
20260508081415 51 277 1.0 3.0 0.00 0.00 0.00 96 1019.2
20260508080429 51 270 0.0 2.0 0.00 0.00 0.00 96 1019.1
20260508075422 51 306 0.0 2.0 0.00 0.00 0.00 95 1019.2
20260508074419 51 305 0.0 4.0 0.00 0.00 0.00 96 1019.2
20260508073432 51 301 0.0 3.0 0.00 0.00 0.00 95 1019.1
20260508072424 51 282 1.0 5.0 0.00 0.00 0.00 95 1019.2
20260508071439 51 282 1.0 2.0 0.00 0.00 0.00 95 1019.1
20260508070436 51 285 0.0 2.0 0.00 0.00 0.00 95 1019.2
20260508065428 51 285 0.0 3.0 0.00 0.00 0.00 95 1019.2
20260508064442 52 300 0.0 2.0 0.00 0.00 0.00 95 1019.3
20260508063416 52 285 0.0 2.0 0.00 0.00 0.00 95 1019.2
20260508062433 52 309 1.0 4.0 0.00 0.00 0.00 95 1019.3
20260508061427 52 322 1.0 6.0 0.00 0.00 0.00 95 1019.2
20260508060423 52 308 0.0 6.0 0.00 0.00 0.00 96 1019.3
20260508055415 52 281 1.0 5.0 0.00 0.00 0.00 96 1019.3
20260508054433 52 299 2.0 7.0 0.00 0.00 0.00 96 1019.3
20260508053428 52 330 2.0 8.0 0.00 0.00 0.00 96 1019.2
20260508052442 52 329 4.0 9.0 0.00 0.00 0.00 96 1019.2
20260508051419 52 301 1.0 4.0 0.00 0.00 0.00 96 1019.3
20260508050454 52 285 0.0 6.0 0.00 0.00 0.00 95 1019.2
20260508045426 52 275 1.0 5.0 0.00 0.00 0.00 95 1019.2
20260508044420 52 294 1.0 5.0 0.00 0.00 0.00 95 1019.1
20260508043420 52 269 1.0 5.0 0.00 0.00 0.00 95 1019.1
20260508042433 52 270 1.0 6.0 0.00 0.00 0.00 95 1018.9
20260508041428 52 277 3.0 7.0 0.00 0.00 0.00 95 1018.8
20260508040422 52 274 3.0 7.0 0.00 0.00 0.00 95 1018.7
20260508035419 52 277 3.0 8.0 0.00 0.00 0.00 95 1018.5
20260508034453 53 277 4.0 7.0 0.00 0.00 0.00 95 1018.4
20260508033426 53 280 3.0 8.0 0.00 0.00 0.00 95 1018.5
20260508032424 53 308 3.0 8.0 0.00 0.00 0.00 95 1018.4
20260508031417 53 298 2.0 6.0 0.00 0.00 0.00 95 1018.5
20260508030431 53 268 3.0 10.0 0.00 0.00 0.00 95 1018.3
20260508025424 53 315 2.0 10.0 0.00 0.00 0.00 94 1018.3
20260508024420 54 286 3.0 9.0 0.00 0.00 0.00 94 1018.3
20260508023454 54 291 5.0 10.0 0.00 0.00 0.00 93 1018.3
20260508022427 55 286 3.0 12.0 0.00 0.00 0.00 92 1018.2
20260508021419 56 277 1.0 5.0 0.00 0.00 0.00 91 1018.3
20260508020418 56 289 1.0 7.0 0.00 0.00 0.00 91 1018.3
20260508015450 57 276 3.0 7.0 0.00 0.00 0.00 90 1018.3
20260508014423 57 271 4.0 9.0 0.00 0.00 0.00 89 1018.4
20260508013417 58 279 4.0 8.0 0.00 0.00 0.00 88 1018.4
20260508012414 59 209 2.0 8.0 0.00 0.00 0.00 89 1018.5
20260508011428 58 317 3.0 7.0 0.00 0.00 0.00 90 1018.5
20260508005442 59 274 2.0 8.0 0.00 0.00 0.00 88 1018.7
20260508004438 60 275 2.0 9.0 0.00 0.00 0.00 86 1018.8
20260508003430 61 258 3.0 9.0 0.00 0.00 0.00 86 1018.7
20260508002443 61 317 2.0 8.0 0.00 0.00 0.00 86 1018.8
20260508001416 60 291 3.0 13.0 0.00 0.00 0.00 87 1018.8
20260508000456 59 307 4.0 11.0 0.00 0.00 0.00 87 1018.8
20260507235445 60 319 5.0 11.0 0.00 0.00 0.00 87 1018.7
20260507234418 60 295 5.0 11.0 0.00 0.00 0.00 87 1018.6
20260507233433 60 315 4.0 10.0 0.00 0.00 0.00 87 1018.8
20260507232433 60 272 4.0 10.0 0.00 0.00 0.00 87 1019.0